Weather History for KGEV - November, 2014

Change the Weather History Date:

Wednesday, November 5, 2014

  Actual Average Record
Temperature  
Mean Temperature 54 °F -  
Max Temperature 59 °F 54 °F 74 °F (1975)
Min Temperature 48 °F 34 °F 12 °F (1991)
Degree Days  
Heating Degree Days 12    
Growing Degree Days 4 (Base 50)    
Moisture  
Dew Point 31 °F    
Average Humidity 42    
Maximum Humidity 59    
Minimum Humidity 22    
Precipitation  
Precipitation 0.00 in - - ()
Sea Level Pressure  
Sea Level Pressure 30.23 in    
Wind  
Wind Speed 5 mph (West)    
Max Wind Speed 20 mph    
Max Gust Speed 29 mph    
Visibility 10 miles    
Events      
Averages and records for this station are not official NWS values.
T = Trace of Precipitation, MM = Missing Value Source: NWS Daily Summary

Daily Weather History Graph

Daily Weather History Graph

Search for Another Location

Airport or City:

Trip Planner

Search our weather history database for the weather conditions in past years. The results will help you decide how hot, cold, wet, or windy it might be!

Date:

Astronomy

Nov. 05, 2014 Rise Set
Actual Time 6:52 AM EST 5:25 PM EST
Civil Twilight 6:25 AM EST 5:52 PM EST
Nautical Twilight 5:55 AM EST 6:22 PM EST
Astronomical Twilight 5:25 AM EST 6:52 PM EST
Moon 4:47 PM EST (11/5) 5:19 AM EST (11/5)
Length of Visible Light 11h 26m
Length of Day
10h 32m
Waxing Gibbous, 98% of the Moon is Illuminated
Nov 5
Waxing Gibbous
Nov 6
Full
Nov 14
Last Quarter
Nov 22
New
Nov 29
First Quarter

Hourly Weather History & Observations

Time (EST) Temp. Dew Point Humidity Pressure Visibility Wind Dir Wind Speed Gust Speed Precip Events Conditions
12:15 AM 50.4 °F 27.5 °F 41% 30.24 in 10.0 mi Calm Calm - N/A   Clear
12:35 AM 48.7 °F 29.1 °F 47% 30.23 in 10.0 mi Calm Calm - N/A   Clear
12:55 AM 49.3 °F 30.0 °F 48% 30.23 in 10.0 mi Calm Calm - N/A   Clear
1:15 AM 49.5 °F 29.8 °F 47% 30.24 in 10.0 mi WSW 3.5 mph - N/A   Clear
1:35 AM 50.5 °F 27.5 °F 41% 30.24 in 10.0 mi West 6.9 mph - N/A   Clear
1:55 AM 54.9 °F 23.7 °F 30% 30.24 in 10.0 mi West 3.5 mph - N/A   Clear
2:15 AM 55.4 °F 22.5 °F 28% 30.24 in 10.0 mi WNW 9.2 mph - N/A   Clear
2:35 AM 55.2 °F 21.7 °F 27% 30.24 in 10.0 mi WNW 6.9 mph - N/A   Clear
2:55 AM 54.7 °F 20.7 °F 27% 30.24 in 10.0 mi WNW 8.1 mph - N/A   Clear
3:15 AM 54.3 °F 20.3 °F 26% 30.24 in 10.0 mi WNW 12.7 mph 18.4 mph N/A   Clear
3:35 AM 54.1 °F 19.2 °F 25% 30.24 in 10.0 mi West 10.4 mph - N/A   Clear
3:55 AM 54.1 °F 17.4 °F 24% 30.23 in 10.0 mi West 6.9 mph - N/A   Clear
4:15 AM 54.5 °F 15.8 °F 22% 30.22 in 10.0 mi West 15.0 mph 21.9 mph N/A   Clear
4:35 AM 54.5 °F 15.8 °F 22% 30.23 in 10.0 mi WNW 19.6 mph 28.8 mph N/A   Clear
4:55 AM 54.0 °F 17.2 °F 24% 30.23 in 10.0 mi West 17.3 mph 24.2 mph N/A   Clear
5:15 AM 53.8 °F 17.6 °F 24% 30.23 in 10.0 mi WNW 16.1 mph 24.2 mph N/A   Clear
5:35 AM 53.6 °F 18.5 °F 25% 30.24 in 10.0 mi West 16.1 mph 28.8 mph N/A   Clear
5:55 AM 53.6 °F 18.7 °F 25% 30.25 in 10.0 mi West 4.6 mph 18.4 mph N/A   Clear
6:15 AM 53.2 °F 19.4 °F 27% 30.25 in 10.0 mi West 15.0 mph 20.7 mph N/A   Clear
6:35 AM 53.2 °F 20.5 °F 28% 30.26 in 10.0 mi West 10.4 mph 19.6 mph N/A   Clear
6:55 AM 53.1 °F 22.6 °F 31% 30.26 in 10.0 mi WNW 10.4 mph - N/A   Clear
7:15 AM 52.7 °F 23.9 °F 33% 30.26 in 10.0 mi WNW 5.8 mph - N/A   Clear
7:35 AM 52.9 °F 24.6 °F 33% 30.26 in 10.0 mi West 6.9 mph 17.3 mph N/A   Clear
7:55 AM 52.7 °F 25.2 °F 34% 30.26 in 10.0 mi WSW 3.5 mph - N/A   Clear
8:15 AM 53.1 °F 26.4 °F 36% 30.27 in 10.0 mi Calm Calm - N/A   Clear
8:35 AM 53.8 °F 29.3 °F 39% 30.28 in 10.0 mi WNW 5.8 mph - N/A   Clear
8:55 AM 54.1 °F 30.2 °F 40% 30.28 in 10.0 mi West 5.8 mph - N/A   Clear
9:15 AM 54.9 °F 30.9 °F 40% 30.28 in 10.0 mi West 3.5 mph - N/A   Clear
9:35 AM 56.1 °F 32.0 °F 40% 30.29 in 10.0 mi Calm Calm - N/A   Clear
9:55 AM 56.5 °F 33.4 °F 42% 30.30 in 10.0 mi West 6.9 mph - N/A   Scattered Clouds
10:15 AM 56.7 °F 33.6 °F 42% 30.30 in 10.0 mi West 4.6 mph - N/A   Mostly Cloudy
10:35 AM 57.2 °F 35.2 °F 44% 30.30 in 10.0 mi West 5.8 mph - N/A   Mostly Cloudy
10:55 AM 57.9 °F 36.9 °F 45% 30.29 in 10.0 mi WNW 8.1 mph - N/A   Scattered Clouds
11:15 AM 58.1 °F 38.5 °F 48% 30.30 in 10.0 mi West 9.2 mph - N/A   Scattered Clouds
11:35 AM 58.6 °F 39.0 °F 48% 30.28 in 10.0 mi West 9.2 mph - N/A   Scattered Clouds
11:55 AM 58.8 °F 39.4 °F 49% 30.27 in 10.0 mi West 8.1 mph - N/A   Mostly Cloudy
12:15 PM 58.1 °F 39.9 °F 51% 30.27 in 10.0 mi West 9.2 mph - N/A   Overcast
12:35 PM 58.5 °F 40.3 °F 51% 30.26 in 10.0 mi West 6.9 mph - N/A   Overcast
12:55 PM 58.6 °F 40.5 °F 51% 30.25 in 10.0 mi WNW 8.1 mph - N/A   Overcast
1:15 PM 58.5 °F 41.2 °F 53% 30.24 in 10.0 mi WNW 8.1 mph - N/A   Overcast
1:35 PM 57.7 °F 42.1 °F 56% 30.24 in 10.0 mi West 9.2 mph - N/A   Overcast
1:55 PM 57.7 °F 42.1 °F 56% 30.22 in 10.0 mi WNW 3.5 mph - N/A   Overcast
2:15 PM 58.6 °F 42.6 °F 55% 30.22 in 10.0 mi WSW 3.5 mph - N/A   Overcast
2:35 PM 58.5 °F 41.7 °F 54% 30.21 in 10.0 mi West 5.8 mph - N/A   Mostly Cloudy
2:55 PM 58.5 °F 41.2 °F 53% 30.21 in 10.0 mi Calm Calm - N/A   Mostly Cloudy
3:15 PM 59.0 °F 40.5 °F 50% 30.19 in 10.0 mi East 4.6 mph - N/A   Overcast
3:35 PM 57.4 °F 41.7 °F 56% 30.20 in 10.0 mi Calm Calm - N/A   Mostly Cloudy
3:55 PM 58.1 °F 34.2 °F 41% 30.20 in 10.0 mi ESE 4.6 mph - N/A   Overcast
4:15 PM 57.6 °F 34.3 °F 42% 30.21 in 10.0 mi Calm Calm - N/A   Overcast
4:35 PM 56.8 °F 33.3 °F 41% 30.20 in 10.0 mi Calm Calm - N/A   Overcast
4:55 PM 56.5 °F 33.1 °F 41% 30.21 in 10.0 mi Calm Calm - N/A   Overcast
5:15 PM 55.9 °F 33.1 °F 42% 30.20 in 10.0 mi SE 3.5 mph - N/A   Overcast
5:35 PM 54.9 °F 32.9 °F 43% 30.20 in 10.0 mi SE 3.5 mph - N/A   Mostly Cloudy
5:55 PM 55.4 °F 32.0 °F 41% 30.20 in 10.0 mi Calm Calm - N/A   Mostly Cloudy
6:15 PM 54.7 °F 32.0 °F 42% 30.20 in 10.0 mi Calm Calm - N/A   Scattered Clouds
6:35 PM 54.5 °F 31.8 °F 42% 30.20 in 10.0 mi Calm Calm - N/A   Clear
6:55 PM 54.0 °F 32.0 °F 43% 30.21 in 10.0 mi Calm Calm - N/A   Scattered Clouds
7:15 PM 54.5 °F 30.4 °F 40% 30.20 in 10.0 mi Calm Calm - N/A   Mostly Cloudy
7:35 PM 53.2 °F 33.6 °F 47% 30.20 in 10.0 mi Calm Calm - N/A   Scattered Clouds
7:55 PM 53.6 °F 32.0 °F 44% 30.20 in 10.0 mi Calm Calm - N/A   Mostly Cloudy
8:15 PM 52.3 °F 38.5 °F 59% 30.21 in 10.0 mi Calm Calm - N/A   Overcast
8:35 PM 51.3 °F 39.2 °F 63% 30.20 in 10.0 mi Calm Calm - N/A   Overcast
8:55 PM 51.4 °F 33.1 °F 50% 30.19 in 10.0 mi Calm Calm - N/A   Overcast
9:15 PM 51.8 °F 32.5 °F 48% 30.19 in 10.0 mi Calm Calm - N/A   Overcast
9:35 PM 51.3 °F 32.0 °F 48% 30.18 in 10.0 mi Calm Calm - N/A   Mostly Cloudy
9:55 PM 51.1 °F 32.0 °F 48% 30.18 in 10.0 mi Calm Calm - N/A   Mostly Cloudy
10:15 PM 51.8 °F 32.0 °F 47% 30.16 in 10.0 mi Calm Calm - N/A   Overcast
10:35 PM 49.8 °F 33.1 °F 53% 30.14 in 10.0 mi Calm Calm - N/A   Overcast
10:55 PM 50.7 °F 32.5 °F 50% 30.13 in 10.0 mi SE 3.5 mph - N/A   Overcast
11:15 PM 49.6 °F 34.2 °F 55% 30.14 in 10.0 mi Calm Calm - N/A   Overcast
11:35 PM 50.5 °F 35.8 °F 57% 30.14 in 10.0 mi Calm Calm - N/A   Overcast
11:55 PM 50.9 °F 36.0 °F 57% 30.14 in 10.0 mi Calm Calm - N/A   Overcast